Kansas City International, MO

9:31 AM CDT on March 26, 2017 (GMT -0500)
Kansas City International

Weather History for KMCI - February, 2014

Change the Weather History Date:

Thursday, February 20, 2014

  Actual Average Record
Temperature  
Mean Temperature 39 °F 35 °F  
Max Temperature 45 °F 45 °F 75 °F (2016)
Min Temperature 33 °F 25 °F 2 °F (1918)
Degree Days  
Heating Degree Days 26 30  
Month to date heating degree days 842 657  
Since 1 July heating degree days 4286 3821  
Cooling Degree Days 0 0  
Month to date cooling degree days 0 0  
Year to date cooling degree days 0 0  
Moisture  
Dew Point 35 °F    
Average Humidity 76    
Maximum Humidity 100    
Minimum Humidity 52    
Precipitation  
Precipitation 0.37 in 0.05 in 1.16 in (1997)
Month to date precipitation 1.36 1.00  
Year to date precipitation 1.75 2.07  
Snow  
Snow T in 0.20 in 8.00 in (1960)
Month to date snowfall 11.3 4.2  
Since 1 July snowfall 22.6 15.0  
Snow Depth 0.00 in    
Sea Level Pressure  
Sea Level Pressure 29.51 in    
Wind  
Wind Speed 14 mph (NW)    
Max Wind Speed 30 mph    
Max Gust Speed 39 mph    
Visibility 7 miles    
Events Rain , Snow , Thunderstorm    
T = Trace of Precipitation, MM = Missing Value Source: NWS Daily Summary

Daily Weather History Graph

Daily Weather History Graph

Search for Another Location

Airport or City:

Trip Planner

Search our weather history database for the weather conditions in past years. The results will help you decide how hot, cold, wet, or windy it might be!

Date:

Astronomy

Feb. 20, 2014 Rise Set
Actual Time 7:04 AM CST 6:01 PM CST
Civil Twilight 6:36 AM CST 6:28 PM CST
Nautical Twilight 6:05 AM CST 6:59 PM CST
Astronomical Twilight 5:34 AM CST 7:31 PM CST
Moon 11:54 PM CST (2/20) 9:49 AM CST (2/20)
Length of Visible Light 11h 51m
Length of Day
10h 57m
Waning Gibbous, 70% of the Moon is Illuminated
Feb 20
Waning Gibbous
Feb 22
Last Quarter
Mar 1
New
Mar 8
First Quarter
Mar 16
Full

Hourly Weather History & Observations

Time (CST) Temp. Windchill Dew Point Humidity Pressure Visibility Wind Dir Wind Speed Gust Speed Precip Events Conditions
12:53 AM 42.1 °F 37.7 °F 37.9 °F 85% 29.54 in 10.0 mi East 6.9 mph - N/A   Overcast
1:51 AM 42.8 °F 39.3 °F 39.2 °F 87% 29.50 in 10.0 mi East 5.8 mph - 0.03 in   Overcast
1:53 AM 43.0 °F 40.3 °F 39.0 °F 86% 29.50 in 10.0 mi East 4.6 mph - 0.03 in   Overcast
2:53 AM 44.1 °F 41.5 °F 39.9 °F 85% 29.47 in 10.0 mi East 4.6 mph - N/A   Overcast
3:53 AM 43.0 °F 38.8 °F 39.9 °F 89% 29.44 in 10.0 mi NNE 6.9 mph - N/A   Overcast
4:39 AM 42.1 °F 36.6 °F 39.0 °F 89% 29.39 in 10.0 mi NE 9.2 mph - 0.00 in Rain , Thunderstorm Light Rain
4:45 AM 42.1 °F 36.6 °F 39.0 °F 89% 29.39 in 10.0 mi NE 9.2 mph - 0.01 in Rain , Thunderstorm Light Thunderstorms and Rain
4:53 AM 42.1 °F 36.1 °F 39.0 °F 89% 29.38 in 6.0 mi NE 10.4 mph - 0.04 in Rain , Thunderstorm Thunderstorms and Rain
5:25 AM 42.1 °F 36.6 °F 39.9 °F 92% 29.38 in 10.0 mi North 9.2 mph - N/A   Overcast
5:53 AM 42.1 °F 34.2 °F 39.9 °F 92% 29.41 in 7.0 mi NW 16.1 mph 20.7 mph 0.03 in Rain Light Rain
6:51 AM 42.8 °F 36.6 °F 41.0 °F 93% 29.39 in 8.0 mi NE 11.5 mph - 0.03 in Rain Light Rain
6:53 AM 42.1 °F 35.2 °F 41.0 °F 96% 29.39 in 8.0 mi NE 12.7 mph - 0.03 in Rain Light Rain
7:40 AM 43.0 °F 37.2 °F 42.1 °F 97% 29.36 in 1.0 mi NNE 10.4 mph - 0.00 in Rain Light Rain
7:46 AM 42.1 °F 35.7 °F 42.1 °F 100% 29.35 in 0.5 mi NNE 11.5 mph - 0.00 in Rain Light Rain
7:53 AM 42.1 °F 35.7 °F 42.1 °F 100% 29.35 in 0.5 mi NE 11.5 mph - 0.00 in Rain Light Rain
8:53 AM 43.0 °F 38.8 °F 43.0 °F 100% 29.30 in 0.5 mi ENE 6.9 mph - 0.01 in   Overcast
9:28 AM 42.1 °F 38.4 °F 42.1 °F 100% 29.27 in 0.5 mi North 5.8 mph - 0.02 in Rain , Thunderstorm Light Thunderstorms and Rain
9:43 AM 42.1 °F 35.7 °F 42.1 °F 100% 29.28 in 0.5 mi WNW 11.5 mph - 0.09 in Rain , Thunderstorm Light Rain
9:53 AM 41.0 °F 31.9 °F 39.9 °F 96% 29.31 in 0.5 mi WNW 19.6 mph 28.8 mph 0.10 in Rain Light Rain
10:29 AM 39.0 °F 29.0 °F 39.0 °F 100% 29.32 in 7.0 mi NW 20.7 mph 32.2 mph 0.02 in Rain Light Rain
10:53 AM 37.9 °F 27.6 °F 37.0 °F 97% 29.34 in 8.0 mi NW 20.7 mph 34.5 mph 0.03 in Rain Light Rain
11:48 AM 35.6 °F 24.5 °F 35.6 °F 100% 29.41 in 4.0 mi NW 20.7 mph 33.4 mph 0.02 in Rain Light Ice Pellets
11:53 AM 36.0 °F 25.0 °F 35.1 °F 97% 29.42 in 4.0 mi NW 20.7 mph 33.4 mph 0.02 in Rain Light Ice Pellets
12:07 PM 36.0 °F 24.4 °F 34.0 °F 93% 29.44 in 5.0 mi NW 23.0 mph 38.0 mph 0.01 in Rain Light Ice Pellets
12:15 PM 36.0 °F 23.9 °F 34.0 °F 93% 29.46 in 8.0 mi NW 25.3 mph 38.0 mph 0.01 in Rain Light Rain
12:22 PM 35.1 °F 23.0 °F 34.0 °F 96% 29.44 in 5.0 mi NW 24.2 mph 38.0 mph 0.01 in Snow Light Snow
12:32 PM 34.0 °F 22.1 °F 33.1 °F 96% 29.46 in 1.8 mi NW 21.9 mph 39.1 mph 0.02 in Snow Light Snow
12:38 PM 34.0 °F 21.8 °F 33.1 °F 96% 29.46 in 0.8 mi NW 23.0 mph 34.5 mph 0.03 in Snow Light Snow
12:53 PM 34.0 °F 21.0 °F 33.1 °F 96% 29.47 in 2.0 mi NW 26.5 mph 36.8 mph 0.07 in Snow Light Snow
1:03 PM 35.1 °F 23.3 °F 34.0 °F 96% 29.48 in 3.0 mi NW 23.0 mph 34.5 mph 0.00 in Snow Light Snow
1:21 PM 35.1 °F 24.5 °F 35.1 °F 100% 29.49 in 3.0 mi WNW 18.4 mph 29.9 mph 0.01 in Rain , Snow Light Rain
1:33 PM 36.0 °F 25.3 °F 35.1 °F 97% 29.49 in 3.0 mi WNW 19.6 mph 32.2 mph 0.01 in Rain , Snow Light Rain
1:45 PM 36.0 °F 24.4 °F 35.1 °F 97% 29.52 in 3.0 mi WNW 23.0 mph 34.5 mph 0.01 in Rain , Snow Light Rain
1:53 PM 36.0 °F 25.6 °F 34.0 °F 93% 29.56 in 3.0 mi WNW 18.4 mph 35.7 mph 0.01 in Rain Light Rain
2:32 PM 37.0 °F 26.7 °F 36.0 °F 96% 29.59 in 10.0 mi NW 19.6 mph 36.8 mph 0.00 in Rain Light Rain
2:40 PM 37.9 °F 26.8 °F 36.0 °F 93% 29.61 in 10.0 mi WNW 24.2 mph 33.4 mph 0.00 in   Overcast
2:50 PM 37.4 °F 26.9 °F 35.6 °F 93% 29.61 in 10.0 mi NW 20.7 mph 35.7 mph 0.00 in Rain Light Rain
2:53 PM 37.9 °F 27.1 °F 36.0 °F 93% 29.63 in 10.0 mi WNW 23.0 mph 35.7 mph 0.00 in Rain Light Rain
3:53 PM 39.0 °F 29.6 °F 30.9 °F 73% 29.71 in 10.0 mi West 18.4 mph 27.6 mph 0.00 in   Mostly Cloudy
4:53 PM 41.0 °F 33.9 °F 32.0 °F 70% 29.72 in 10.0 mi WSW 12.7 mph - N/A   Scattered Clouds
5:53 PM 39.0 °F 31.8 °F 30.9 °F 73% 29.73 in 10.0 mi WSW 11.5 mph - N/A   Scattered Clouds
6:53 PM 39.9 °F 31.4 °F 27.0 °F 60% 29.75 in 10.0 mi West 16.1 mph - N/A   Scattered Clouds
7:53 PM 39.0 °F 31.4 °F 25.0 °F 57% 29.76 in 10.0 mi WNW 12.7 mph - N/A   Scattered Clouds
8:53 PM 37.0 °F 26.7 °F 21.9 °F 54% 29.78 in 10.0 mi WNW 19.6 mph 33.4 mph N/A   Clear
9:53 PM 35.1 °F 25.5 °F 19.9 °F 54% 29.80 in 10.0 mi WNW 15.0 mph 27.6 mph N/A   Clear
10:53 PM 33.1 °F 24.4 °F 21.0 °F 61% 29.80 in 10.0 mi West 11.5 mph - N/A   Clear
11:53 PM 34.0 °F 22.7 °F 18.0 °F 52% 29.81 in 10.0 mi West 19.6 mph 27.6 mph N/A   Clear